Location: Bailleul
(50.3375°N, 2.8513°E)
Time: 21:58:37
(UTC+00:00)

Cosmos 2016 Rocket - Pass Details

Date: 25 October 2021
Orbit: 947 x 1000 km, 83.0° (Epoch: 02 December)

Event Time Altitude Azimuth Distance (km) Brightness Sun altitude
Exits shadow 19:48:06 40° 12° (NNE) 1,379 4.7 -30.8°
Drops below altitude 10° 19:51:52 10° 10° (N) 2,691 6.4 -31.4°
Sets 19:54:22 0° 11° (N) 3,637 7.1 -31.8°
